RS-15 - Orbit

View from above orbital plane
View from above orbital plane
View from above satellite
View from above satellite

Ground track
Ground track

The orbit data is extracted from the following two-line orbital elements,

1 23439U 94085A   13170.03263575  .00000004  00000-0  10000-3 0  5882
2 23439 064.8165 059.0000 0153373 151.6701 209.2711 11.27558758761050
Epoch (UTC): 19 June 2013 00:46:59
Eccentricity: 0.0153373
inclination: 64.8165°
perigee height: 1893 km
apogee height: 2151 km
right ascension of ascending node: 59.0000°
argument of perigee: 151.6701°
revolutions per day: 11.27558758
mean anomaly at epoch: 209.2711°
orbit number at epoch: 76105

The dashed part of the orbit path shows where the satellite is in the earth's shadow,  

Developed and maintained by Chris Peat, Heavens-Above GmbH. Please read the updated FAQ before sending e-mail. Imprint. DLR